Time,TemperatureF,DewpointF,PressureIn,WindDirection,WindDirectionDegrees,WindSpeedMPH,WindSpeedGustMPH,Humidity,HourlyPrecipIn,Conditions,Clouds,dailyrainin,SolarRadiationWatts/m^2,SoftwareType,DateUTC
2013-06-29 00:01:00,64.4,62.3,29.61,NE,55,0.0,0.0,93,0.00,,,0.00,0,Wunderground v.1.15,2013-06-29 05:01:00,
2013-06-29 00:07:00,64.2,62.1,29.61,NE,55,0.0,1.0,93,0.00,,,0.00,0,Wunderground v.1.15,2013-06-29 05:07:00,
2013-06-29 00:13:00,64.0,61.9,29.61,NE,55,0.0,0.0,93,0.00,,,0.00,0,Wunderground v.1.15,2013-06-29 05:13:00,
2013-06-29 00:18:00,63.9,61.8,29.61,NE,55,0.0,0.0,93,0.00,,,0.00,0,Wunderground v.1.15,2013-06-29 05:18:00,
2013-06-29 00:23:00,63.9,61.8,29.61,NE,55,0.0,0.0,93,0.00,,,0.00,0,Wunderground v.1.15,2013-06-29 05:23:00,
2013-06-29 00:29:00,63.8,61.7,29.61,NE,55,0.0,1.0,93,0.00,,,0.00,0,Wunderground v.1.15,2013-06-29 05:29:00,
2013-06-29 00:35:00,63.7,61.6,29.61,NE,55,0.0,0.0,93,0.00,,,0.00,0,Wunderground v.1.15,2013-06-29 05:35:00,
2013-06-29 00:41:00,63.7,61.6,29.61,NE,55,0.0,0.0,93,0.00,,,0.00,0,Wunderground v.1.15,2013-06-29 05:41:00,
2013-06-29 00:46:00,63.5,61.4,29.61,NE,55,0.0,0.0,93,0.00,,,0.00,0,Wunderground v.1.15,2013-06-29 05:46:00,
2013-06-29 00:52:00,63.3,61.2,29.61,NE,55,0.0,0.0,93,0.00,,,0.00,0,Wunderground v.1.15,2013-06-29 05:52:00,
2013-06-29 00:57:00,63.6,61.5,29.61,NE,55,0.0,1.0,93,0.00,,,0.00,0,Wunderground v.1.15,2013-06-29 05:57:00,
2013-06-29 01:02:00,63.5,61.4,29.61,NE,55,0.0,2.0,93,0.00,,,0.00,0,Wunderground v.1.15,2013-06-29 06:02:00,
2013-06-29 01:08:00,63.4,61.3,29.61,NE,55,0.0,2.0,93,0.00,,,0.00,0,Wunderground v.1.15,2013-06-29 06:08:00,
2013-06-29 01:13:00,63.3,61.2,29.61,NE,55,0.0,1.0,93,0.00,,,0.00,0,Wunderground v.1.15,2013-06-29 06:13:00,
2013-06-29 01:20:00,63.2,61.1,29.60,NE,55,0.0,2.0,93,0.00,,,0.00,0,Wunderground v.1.15,2013-06-29 06:20:00,
2013-06-29 01:25:00,63.3,61.5,29.60,NE,55,0.0,3.0,94,0.00,,,0.00,0,Wunderground v.1.15,2013-06-29 06:25:00,
2013-06-29 01:31:00,63.4,61.6,29.60,NE,55,0.0,2.0,94,0.00,,,0.00,0,Wunderground v.1.15,2013-06-29 06:31:00,
2013-06-29 01:36:00,63.4,61.3,29.60,NNE,28,1.0,3.0,93,0.00,,,0.00,0,Wunderground v.1.15,2013-06-29 06:36:00,
2013-06-29 01:42:00,63.5,61.4,29.60,NNE,28,2.0,2.0,93,0.00,,,0.00,0,Wunderground v.1.15,2013-06-29 06:42:00,
2013-06-29 01:47:00,63.5,61.4,29.60,NNE,28,2.0,3.0,93,0.00,,,0.00,0,Wunderground v.1.15,2013-06-29 06:47:00,
2013-06-29 01:52:00,63.5,61.4,29.60,NNE,32,2.0,3.0,93,0.00,,,0.00,0,Wunderground v.1.15,2013-06-29 06:52:00,
2013-06-29 01:58:00,63.6,61.5,29.60,NNE,32,2.0,3.0,93,0.00,,,0.00,0,Wunderground v.1.15,2013-06-29 06:58:00,
2013-06-29 02:03:00,63.8,61.7,29.60,NNE,30,2.0,3.0,93,0.00,,,0.00,0,Wunderground v.1.15,2013-06-29 07:03:00,
2013-06-29 02:08:00,63.7,61.6,29.60,NNE,29,1.0,3.0,93,0.00,,,0.00,0,Wunderground v.1.15,2013-06-29 07:08:00,
2013-06-29 02:13:00,63.6,61.5,29.60,North,5,1.0,2.0,93,0.00,,,0.00,0,Wunderground v.1.15,2013-06-29 07:13:00,
2013-06-29 02:19:00,63.6,61.2,29.60,North,5,1.0,2.0,92,0.00,,,0.00,0,Wunderground v.1.15,2013-06-29 07:19:00,
2013-06-29 02:24:00,63.6,61.2,29.60,NNE,12,1.0,2.0,92,0.00,,,0.00,0,Wunderground v.1.15,2013-06-29 07:24:00,
2013-06-29 02:29:00,63.7,61.6,29.60,NNE,12,1.0,2.0,93,0.00,,,0.00,0,Wunderground v.1.15,2013-06-29 07:29:00,
2013-06-29 02:35:00,63.5,61.1,29.60,NNE,12,0.0,0.0,92,0.00,,,0.00,0,Wunderground v.1.15,2013-06-29 07:35:00,
2013-06-29 02:41:00,63.3,60.9,29.60,NNE,12,0.0,0.0,92,0.00,,,0.00,0,Wunderground v.1.15,2013-06-29 07:41:00,
2013-06-29 02:47:00,63.1,61.0,29.60,NNE,12,0.0,0.0,93,0.00,,,0.00,0,Wunderground v.1.15,2013-06-29 07:47:00,
2013-06-29 02:52:00,62.8,60.7,29.60,NNE,12,0.0,0.0,93,0.00,,,0.00,0,Wunderground v.1.15,2013-06-29 07:52:00,
2013-06-29 02:58:00,62.6,60.5,29.60,NNE,12,0.0,0.0,93,0.00,,,0.00,0,Wunderground v.1.15,2013-06-29 07:58:00,
2013-06-29 03:04:00,62.7,60.6,29.60,NNE,12,0.0,0.0,93,0.00,,,0.00,0,Wunderground v.1.15,2013-06-29 08:04:00,
2013-06-29 03:09:00,63.0,61.2,29.60,NNE,12,1.0,2.0,94,0.00,,,0.00,0,Wunderground v.1.15,2013-06-29 08:09:00,
2013-06-29 03:14:00,63.0,60.9,29.60,NNE,12,1.0,1.0,93,0.00,,,0.00,0,Wunderground v.1.15,2013-06-29 08:14:00,
2013-06-29 03:19:00,63.0,60.9,29.60,NNE,12,1.0,2.0,93,0.00,,,0.00,0,Wunderground v.1.15,2013-06-29 08:19:00,
2013-06-29 03:24:00,63.2,61.4,29.60,NNE,12,1.0,3.0,94,0.00,,,0.00,0,Wunderground v.1.15,2013-06-29 08:24:00,
2013-06-29 03:30:00,63.4,61.6,29.60,NNE,12,1.0,3.0,94,0.00,,,0.00,0,Wunderground v.1.15,2013-06-29 08:30:00,
2013-06-29 03:36:00,63.6,61.8,29.60,NNE,12,1.0,3.0,94,0.00,,,0.00,0,Wunderground v.1.15,2013-06-29 08:36:00,
2013-06-29 03:42:00,63.7,61.6,29.60,NNW,339,1.0,1.0,93,0.00,,,0.00,0,Wunderground v.1.15,2013-06-29 08:42:00,
2013-06-29 03:47:00,63.7,61.6,29.60,NNW,339,1.0,2.0,93,0.00,,,0.00,0,Wunderground v.1.15,2013-06-29 08:47:00,
2013-06-29 03:52:00,63.9,61.8,29.60,NNW,339,1.0,1.0,93,0.00,,,0.00,0,Wunderground v.1.15,2013-06-29 08:52:00,
2013-06-29 03:58:00,63.9,61.8,29.60,NNW,339,1.0,3.0,93,0.00,,,0.00,0,Wunderground v.1.15,2013-06-29 08:58:00,
2013-06-29 04:04:00,63.8,61.7,29.60,NNW,339,1.0,1.0,93,0.00,,,0.00,0,Wunderground v.1.15,2013-06-29 09:04:00,
2013-06-29 04:09:00,63.7,61.3,29.60,NNW,339,0.0,1.0,92,0.00,,,0.00,0,Wunderground v.1.15,2013-06-29 09:09:00,
2013-06-29 04:15:00,63.5,61.1,29.60,NNW,339,0.0,0.0,92,0.00,,,0.00,0,Wunderground v.1.15,2013-06-29 09:15:00,
2013-06-29 04:21:00,63.5,61.4,29.60,NNW,339,0.0,0.0,93,0.00,,,0.00,0,Wunderground v.1.15,2013-06-29 09:21:00,
2013-06-29 04:27:00,63.5,61.4,29.60,NNW,339,0.0,1.0,93,0.00,,,0.00,0,Wunderground v.1.15,2013-06-29 09:27:00,
2013-06-29 04:33:00,63.7,61.6,29.60,NNW,339,0.0,0.0,93,0.00,,,0.00,0,Wunderground v.1.15,2013-06-29 09:33:00,
2013-06-29 04:38:00,63.8,61.7,29.60,NNW,339,0.0,0.0,93,0.00,,,0.00,0,Wunderground v.1.15,2013-06-29 09:38:00,
2013-06-29 04:44:00,63.6,61.5,29.60,NNW,339,0.0,0.0,93,0.00,,,0.00,0,Wunderground v.1.15,2013-06-29 09:44:00,
2013-06-29 04:49:00,63.5,61.4,29.61,NNW,339,0.0,1.0,93,0.00,,,0.00,0,Wunderground v.1.15,2013-06-29 09:49:00,
2013-06-29 04:54:00,63.5,61.4,29.61,NNW,339,0.0,0.0,93,0.00,,,0.00,0,Wunderground v.1.15,2013-06-29 09:54:00,
2013-06-29 05:00:00,63.8,61.7,29.61,NNW,339,0.0,2.0,93,0.00,,,0.00,0,Wunderground v.1.15,2013-06-29 10:00:00,
2013-06-29 05:05:00,64.0,61.9,29.61,NNW,339,1.0,2.0,93,0.00,,,0.00,0,Wunderground v.1.15,2013-06-29 10:05:00,
2013-06-29 05:10:00,64.1,62.0,29.61,NNW,339,1.0,2.0,93,0.00,,,0.00,0,Wunderground v.1.15,2013-06-29 10:10:00,
2013-06-29 05:16:00,64.2,61.8,29.61,NNW,339,1.0,3.0,92,0.00,,,0.00,0,Wunderground v.1.15,2013-06-29 10:16:00,
2013-06-29 05:21:00,64.2,61.8,29.61,NNW,339,1.0,1.0,92,0.00,,,0.00,0,Wunderground v.1.15,2013-06-29 10:21:00,
2013-06-29 05:27:00,64.1,61.7,29.61,NNW,339,1.0,1.0,92,0.00,,,0.00,0,Wunderground v.1.15,2013-06-29 10:27:00,
2013-06-29 05:32:00,64.3,61.9,29.62,NNW,339,0.0,2.0,92,0.00,,,0.00,0,Wunderground v.1.15,2013-06-29 10:32:00,
2013-06-29 05:38:00,64.4,62.0,29.62,NNW,339,1.0,3.0,92,0.00,,,0.00,0,Wunderground v.1.15,2013-06-29 10:38:00,
2013-06-29 05:43:00,64.5,62.1,29.62,NNW,339,1.0,2.0,92,0.00,,,0.00,0,Wunderground v.1.15,2013-06-29 10:43:00,
2013-06-29 05:49:00,64.4,62.0,29.62,NNW,339,0.0,2.0,92,0.00,,,0.00,0,Wunderground v.1.15,2013-06-29 10:49:00,
2013-06-29 05:54:00,64.2,61.8,29.62,NNW,339,0.0,2.0,92,0.00,,,0.00,0,Wunderground v.1.15,2013-06-29 10:54:00,
2013-06-29 06:00:00,64.1,61.7,29.62,NNW,339,1.0,2.0,92,0.00,,,0.00,5,Wunderground v.1.15,2013-06-29 11:00:00,
2013-06-29 06:06:00,64.0,61.6,29.62,NNW,339,1.0,3.0,92,0.00,,,0.00,5,Wunderground v.1.15,2013-06-29 11:06:00,
2013-06-29 06:12:00,64.1,61.7,29.62,North,355,1.0,2.0,92,0.00,,,0.00,7,Wunderground v.1.15,2013-06-29 11:12:00,
2013-06-29 06:17:00,64.0,61.6,29.63,NNE,19,1.0,2.0,92,0.00,,,0.00,9,Wunderground v.1.15,2013-06-29 11:17:00,
2013-06-29 06:23:00,63.9,61.5,29.63,NNE,21,1.0,3.0,92,0.00,,,0.00,18,Wunderground v.1.15,2013-06-29 11:23:00,
2013-06-29 06:28:00,63.9,61.5,29.63,NNE,31,2.0,4.0,92,0.00,,,0.00,16,Wunderground v.1.15,2013-06-29 11:28:00,
2013-06-29 06:34:00,63.9,61.5,29.62,NNE,20,3.0,3.0,92,0.00,,,0.00,14,Wunderground v.1.15,2013-06-29 11:34:00,
2013-06-29 06:39:00,63.9,61.5,29.62,North,360,3.0,4.0,92,0.00,,,0.00,16,Wunderground v.1.15,2013-06-29 11:39:00,
2013-06-29 06:44:00,63.8,61.4,29.63,NNE,19,3.0,5.0,92,0.00,,,0.00,21,Wunderground v.1.15,2013-06-29 11:44:00,
2013-06-29 06:49:00,63.8,61.4,29.63,North,11,3.0,5.0,92,0.00,,,0.00,33,Wunderground v.1.15,2013-06-29 11:49:00,
2013-06-29 06:55:00,63.9,61.2,29.63,NNE,22,3.0,4.0,91,0.00,,,0.00,35,Wunderground v.1.15,2013-06-29 11:55:00,
2013-06-29 07:00:00,63.9,61.2,29.63,NNW,334,2.0,4.0,91,0.00,,,0.00,33,Wunderground v.1.15,2013-06-29 12:00:00,
2013-06-29 07:06:00,63.9,61.2,29.63,NW,323,2.0,2.0,91,0.00,,,0.00,32,Wunderground v.1.15,2013-06-29 12:06:00,
2013-06-29 07:12:00,63.8,61.1,29.63,NNW,329,1.0,1.0,91,0.00,,,0.00,28,Wunderground v.1.15,2013-06-29 12:12:00,
2013-06-29 07:18:00,63.8,61.4,29.63,NNE,26,1.0,3.0,92,0.00,,,0.00,26,Wunderground v.1.15,2013-06-29 12:18:00,
2013-06-29 07:23:00,63.8,61.1,29.63,ENE,57,1.0,3.0,91,0.00,,,0.00,25,Wunderground v.1.15,2013-06-29 12:23:00,
2013-06-29 07:29:00,64.0,61.6,29.63,NNE,22,2.0,4.0,92,0.00,,,0.00,28,Wunderground v.1.15,2013-06-29 12:29:00,
2013-06-29 07:34:00,64.1,61.7,29.63,NE,42,2.0,3.0,92,0.00,,,0.00,30,Wunderground v.1.15,2013-06-29 12:34:00,
2013-06-29 07:40:00,64.0,61.6,29.63,ENE,62,2.0,5.0,92,0.00,,,0.00,33,Wunderground v.1.15,2013-06-29 12:40:00,
2013-06-29 07:45:00,64.0,61.6,29.63,ENE,57,2.0,5.0,92,0.00,,,0.00,35,Wunderground v.1.15,2013-06-29 12:45:00,
2013-06-29 07:51:00,63.9,61.5,29.63,North,5,2.0,2.0,92,0.00,,,0.00,51,Wunderground v.1.15,2013-06-29 12:51:00,
2013-06-29 07:56:00,63.8,61.4,29.63,NNE,31,2.0,5.0,92,0.00,,,0.00,70,Wunderground v.1.15,2013-06-29 12:56:00,
2013-06-29 08:01:00,64.1,61.7,29.63,ENE,71,3.0,3.0,92,0.00,,,0.00,56,Wunderground v.1.15,2013-06-29 13:01:00,
2013-06-29 08:06:00,63.9,61.5,29.63,NE,36,3.0,6.0,92,0.00,,,0.00,58,Wunderground v.1.15,2013-06-29 13:06:00,
2013-06-29 08:11:00,64.1,61.7,29.63,NNE,27,2.0,3.0,92,0.00,,,0.00,97,Wunderground v.1.15,2013-06-29 13:11:00,
2013-06-29 08:17:00,64.1,61.7,29.63,ENE,57,1.0,3.0,92,0.00,,,0.00,53,Wunderground v.1.15,2013-06-29 13:17:00,
2013-06-29 08:23:00,64.0,61.6,29.63,NE,42,2.0,4.0,92,0.00,,,0.00,60,Wunderground v.1.15,2013-06-29 13:23:00,
2013-06-29 08:28:00,64.0,61.6,29.63,NW,317,4.0,5.0,92,0.00,,,0.00,81,Wunderground v.1.15,2013-06-29 13:28:00,
2013-06-29 08:33:00,64.0,61.3,29.64,NNE,21,4.0,7.0,91,0.00,,,0.00,91,Wunderground v.1.15,2013-06-29 13:33:00,
2013-06-29 08:38:00,64.0,61.3,29.64,NE,49,4.0,7.0,91,0.00,,,0.00,83,Wunderground v.1.15,2013-06-29 13:38:00,
2013-06-29 08:44:00,63.9,61.2,29.64,NNE,31,4.0,6.0,91,0.00,,,0.00,84,Wunderground v.1.15,2013-06-29 13:44:00,
2013-06-29 08:50:00,64.0,61.3,29.64,NNE,30,3.0,6.0,91,0.00,,,0.00,114,Wunderground v.1.15,2013-06-29 13:50:00,
2013-06-29 08:56:00,63.9,61.2,29.64,NNE,31,3.0,9.0,91,0.00,,,0.00,121,Wunderground v.1.15,2013-06-29 13:56:00,
2013-06-29 09:01:00,63.9,61.2,29.65,NE,34,3.0,3.0,91,0.00,,,0.00,125,Wunderground v.1.15,2013-06-29 14:01:00,
2013-06-29 09:07:00,64.0,61.3,29.65,NE,42,3.0,7.0,91,0.00,,,0.00,153,Wunderground v.1.15,2013-06-29 14:07:00,
2013-06-29 09:12:00,64.0,61.3,29.65,NNE,28,3.0,5.0,91,0.00,,,0.00,137,Wunderground v.1.15,2013-06-29 14:12:00,
2013-06-29 09:18:00,63.9,61.2,29.65,North,11,3.0,9.0,91,0.00,,,0.00,90,Wunderground v.1.15,2013-06-29 14:18:00,
2013-06-29 09:24:00,63.8,61.1,29.65,NE,50,4.0,5.0,91,0.00,,,0.00,109,Wunderground v.1.15,2013-06-29 14:24:00,
2013-06-29 09:29:00,63.8,61.1,29.65,NNE,22,5.0,7.0,91,0.00,,,0.00,102,Wunderground v.1.15,2013-06-29 14:29:00,
2013-06-29 09:34:00,63.7,61.0,29.65,NE,47,3.0,10.0,91,0.00,,,0.00,86,Wunderground v.1.15,2013-06-29 14:34:00,
2013-06-29 09:40:00,63.7,61.3,29.65,NE,46,3.0,10.0,92,0.00,,,0.00,81,Wunderground v.1.15,2013-06-29 14:40:00,
2013-06-29 09:46:00,63.4,60.7,29.65,North,9,4.0,7.0,91,0.00,,,0.00,65,Wunderground v.1.15,2013-06-29 14:46:00,
2013-06-29 09:51:00,63.4,61.0,29.65,NNE,24,4.0,4.0,92,0.00,,,0.00,62,Wunderground v.1.15,2013-06-29 14:51:00,
2013-06-29 09:57:00,63.2,60.8,29.65,NNE,28,4.0,5.0,92,0.00,,,0.01,86,Wunderground v.1.15,2013-06-29 14:57:00,
2013-06-29 10:03:00,63.1,60.7,29.65,NNE,30,3.0,4.0,92,0.08,,,0.02,97,Wunderground v.1.15,2013-06-29 15:03:00,
2013-06-29 10:09:00,63.1,60.7,29.65,NNE,19,3.0,7.0,92,0.08,,,0.02,118,Wunderground v.1.15,2013-06-29 15:09:00,
2013-06-29 10:14:00,63.2,60.8,29.65,NNE,15,4.0,7.0,92,0.06,,,0.03,113,Wunderground v.1.15,2013-06-29 15:14:00,
2013-06-29 10:19:00,63.2,60.8,29.65,NNE,17,4.0,7.0,92,0.10,,,0.04,130,Wunderground v.1.15,2013-06-29 15:19:00,
2013-06-29 10:24:00,63.2,60.8,29.65,NNE,19,3.0,3.0,92,0.09,,,0.04,158,Wunderground v.1.15,2013-06-29 15:24:00,
2013-06-29 10:31:00,63.1,60.7,29.63,NNE,28,4.0,5.0,92,0.13,,,0.06,114,Wunderground v.1.15,2013-06-29 15:31:00,
2013-06-29 10:37:00,63.3,60.9,29.63,NE,37,3.0,4.0,92,0.08,,,0.06,125,Wunderground v.1.15,2013-06-29 15:37:00,
2013-06-29 10:43:00,63.2,60.8,29.63,NE,40,3.0,5.0,92,0.04,,,0.06,188,Wunderground v.1.15,2013-06-29 15:43:00,
2013-06-29 10:48:00,63.3,60.9,29.64,NNE,22,4.0,5.0,92,0.00,,,0.06,253,Wunderground v.1.15,2013-06-29 15:48:00,
2013-06-29 10:53:00,63.6,61.2,29.64,NE,44,3.0,3.0,92,0.00,,,0.06,223,Wunderground v.1.15,2013-06-29 15:53:00,
2013-06-29 10:59:00,63.5,60.8,29.64,NE,38,4.0,9.0,91,0.00,,,0.06,221,Wunderground v.1.15,2013-06-29 15:59:00,
2013-06-29 11:04:00,63.6,60.9,29.64,North,5,5.0,6.0,91,0.00,,,0.06,243,Wunderground v.1.15,2013-06-29 16:04:00,
2013-06-29 11:10:00,63.9,61.2,29.64,NNE,15,5.0,9.0,91,0.00,,,0.06,301,Wunderground v.1.15,2013-06-29 16:10:00,
2013-06-29 11:15:00,64.0,60.7,29.64,NNE,20,6.0,12.0,89,0.00,,,0.06,329,Wunderground v.1.15,2013-06-29 16:15:00,
2013-06-29 11:21:00,64.3,61.3,29.64,NNE,30,6.0,8.0,90,0.00,,,0.06,253,Wunderground v.1.15,2013-06-29 16:21:00,
2013-06-29 11:27:00,64.4,61.1,29.64,East,86,5.0,10.0,89,0.00,,,0.06,279,Wunderground v.1.15,2013-06-29 16:27:00,
2013-06-29 11:33:00,64.7,61.4,29.64,NNE,17,6.0,7.0,89,0.00,,,0.06,304,Wunderground v.1.15,2013-06-29 16:33:00,
2013-06-29 11:39:00,65.0,61.7,29.64,NE,40,5.0,11.0,89,0.00,,,0.06,360,Wunderground v.1.15,2013-06-29 16:39:00,
2013-06-29 11:44:00,65.1,61.5,29.64,NNE,30,6.0,8.0,88,0.00,,,0.06,279,Wunderground v.1.15,2013-06-29 16:44:00,
2013-06-29 11:50:00,65.0,61.4,29.64,NNE,29,6.0,8.0,88,0.00,,,0.06,192,Wunderground v.1.15,2013-06-29 16:50:00,
2013-06-29 11:56:00,64.9,61.3,29.64,NNE,25,8.0,13.0,88,0.00,,,0.06,88,Wunderground v.1.15,2013-06-29 16:56:00,
2013-06-29 12:01:00,64.4,61.1,29.65,NNE,13,7.0,8.0,89,0.00,,,0.06,118,Wunderground v.1.15,2013-06-29 17:01:00,
2013-06-29 12:07:00,64.2,60.9,29.65,NNE,14,6.0,8.0,89,0.00,,,0.07,288,Wunderground v.1.15,2013-06-29 17:07:00,
2013-06-29 12:13:00,64.5,61.2,29.65,NE,55,4.0,10.0,89,0.00,,,0.07,357,Wunderground v.1.15,2013-06-29 17:13:00,
2013-06-29 12:18:00,64.8,61.2,29.65,NNE,28,4.0,14.0,88,0.00,,,0.07,432,Wunderground v.1.15,2013-06-29 17:18:00,
2013-06-29 12:23:00,65.0,61.4,29.65,NE,49,5.0,6.0,88,0.00,,,0.07,130,Wunderground v.1.15,2013-06-29 17:23:00,
2013-06-29 12:28:00,65.1,61.5,29.65,ENE,60,4.0,7.0,88,0.00,,,0.07,350,Wunderground v.1.15,2013-06-29 17:28:00,
2013-06-29 12:33:00,65.3,61.3,29.65,NNE,30,3.0,6.0,87,0.00,,,0.07,605,Wunderground v.1.15,2013-06-29 17:33:00,
2013-06-29 12:39:00,65.8,61.2,29.65,NE,40,5.0,11.0,85,0.00,,,0.07,462,Wunderground v.1.15,2013-06-29 17:39:00,
2013-06-29 12:45:00,66.2,60.9,29.65,NNE,30,6.0,12.0,83,0.00,,,0.07,473,Wunderground v.1.15,2013-06-29 17:45:00,
2013-06-29 12:51:00,66.4,60.7,29.65,NNE,22,7.0,7.0,82,0.00,,,0.07,510,Wunderground v.1.15,2013-06-29 17:51:00,
2013-06-29 12:57:00,68.0,60.5,29.65,East,84,5.0,7.0,77,0.00,,,0.07,1255,Wunderground v.1.15,2013-06-29 17:57:00,
2013-06-29 13:03:00,68.0,60.2,29.66,North,5,6.0,13.0,76,0.00,,,0.07,981,Wunderground v.1.15,2013-06-29 18:03:00,
2013-06-29 13:08:00,68.1,61.0,29.66,SSE,147,8.0,13.0,78,0.00,,,0.07,659,Wunderground v.1.15,2013-06-29 18:08:00,
2013-06-29 13:13:00,68.1,60.2,29.66,ESE,104,7.0,11.0,76,0.00,,,0.07,485,Wunderground v.1.15,2013-06-29 18:13:00,
2013-06-29 13:19:00,67.7,60.2,29.66,NNW,341,7.0,14.0,77,0.00,,,0.07,179,Wunderground v.1.15,2013-06-29 18:19:00,
2013-06-29 13:25:00,67.2,59.4,29.66,NE,46,5.0,7.0,76,0.00,,,0.07,301,Wunderground v.1.15,2013-06-29 18:25:00,
2013-06-29 13:30:00,67.3,59.1,29.66,NE,51,4.0,7.0,75,0.00,,,0.07,501,Wunderground v.1.15,2013-06-29 18:30:00,
2013-06-29 13:35:00,67.7,59.5,29.66,East,96,3.0,5.0,75,0.00,,,0.07,327,Wunderground v.1.15,2013-06-29 18:35:00,
2013-06-29 13:41:00,68.2,60.0,29.66,North,360,3.0,7.0,75,0.00,,,0.07,283,Wunderground v.1.15,2013-06-29 18:41:00,
2013-06-29 13:46:00,68.4,59.4,29.66,NNE,24,5.0,13.0,73,0.00,,,0.07,436,Wunderground v.1.15,2013-06-29 18:46:00,
2013-06-29 13:51:00,69.2,59.4,29.66,NE,34,9.0,19.0,71,0.00,,,0.07,1171,Wunderground v.1.15,2013-06-29 18:51:00,
2013-06-29 13:56:00,69.8,59.2,29.66,ENE,60,9.0,19.0,69,0.00,,,0.07,1090,Wunderground v.1.15,2013-06-29 18:56:00,
2013-06-29 14:02:00,70.2,58.7,29.66,North,360,8.0,12.0,67,0.00,,,0.07,1090,Wunderground v.1.15,2013-06-29 19:02:00,
2013-06-29 14:08:00,70.1,58.2,29.66,NE,53,9.0,16.0,66,0.00,,,0.07,1167,Wunderground v.1.15,2013-06-29 19:08:00,
2013-06-29 14:13:00,70.1,57.4,29.66,North,360,11.0,11.0,64,0.00,,,0.07,749,Wunderground v.1.15,2013-06-29 19:13:00,
2013-06-29 14:18:00,70.3,57.5,29.66,ENE,59,10.0,11.0,64,0.00,,,0.07,482,Wunderground v.1.15,2013-06-29 19:18:00,
2013-06-29 14:23:00,70.4,58.9,29.66,NNE,19,9.0,11.0,67,0.00,,,0.07,875,Wunderground v.1.15,2013-06-29 19:23:00,
2013-06-29 14:28:00,71.0,58.6,29.66,NE,34,9.0,14.0,65,0.00,,,0.07,499,Wunderground v.1.15,2013-06-29 19:28:00,
2013-06-29 14:34:00,71.0,56.9,29.66,NE,40,8.0,9.0,61,0.00,,,0.07,710,Wunderground v.1.15,2013-06-29 19:34:00,
2013-06-29 14:39:00,70.8,57.1,29.66,North,5,8.0,11.0,62,0.00,,,0.07,621,Wunderground v.1.15,2013-06-29 19:39:00,
2013-06-29 14:45:00,71.7,57.1,29.66,NE,35,7.0,10.0,60,0.00,,,0.07,554,Wunderground v.1.15,2013-06-29 19:45:00,
2013-06-29 14:50:00,72.0,55.9,29.66,NE,39,6.0,13.0,57,0.00,,,0.07,932,Wunderground v.1.15,2013-06-29 19:50:00,
2013-06-29 14:56:00,72.3,57.2,29.66,ENE,57,7.0,12.0,59,0.00,,,0.07,1039,Wunderground v.1.15,2013-06-29 19:56:00,
2013-06-29 15:01:00,72.0,56.9,29.66,NNE,20,6.0,12.0,59,0.00,,,0.07,954,Wunderground v.1.15,2013-06-29 20:01:00,
2013-06-29 15:07:00,71.9,57.3,29.66,ENE,74,8.0,14.0,60,0.00,,,0.07,703,Wunderground v.1.15,2013-06-29 20:07:00,
2013-06-29 15:12:00,72.5,57.4,29.66,NE,47,6.0,11.0,59,0.00,,,0.07,914,Wunderground v.1.15,2013-06-29 20:12:00,
2013-06-29 15:18:00,72.3,56.2,29.67,NNE,21,6.0,13.0,57,0.00,,,0.07,647,Wunderground v.1.15,2013-06-29 20:18:00,
2013-06-29 15:23:00,72.1,56.5,29.67,North,9,8.0,8.0,58,0.00,,,0.07,661,Wunderground v.1.15,2013-06-29 20:23:00,
2013-06-29 15:29:00,72.2,56.6,29.67,ENE,66,8.0,15.0,58,0.00,,,0.07,882,Wunderground v.1.15,2013-06-29 20:29:00,
2013-06-29 15:34:00,72.2,56.6,29.67,NE,53,8.0,14.0,58,0.00,,,0.07,849,Wunderground v.1.15,2013-06-29 20:34:00,
2013-06-29 15:40:00,72.4,56.3,29.67,North,355,8.0,14.0,57,0.00,,,0.07,840,Wunderground v.1.15,2013-06-29 20:40:00,
2013-06-29 15:46:00,73.0,56.9,29.67,ENE,60,7.0,11.0,57,0.00,,,0.07,805,Wunderground v.1.15,2013-06-29 20:46:00,
2013-06-29 15:52:00,72.9,55.3,29.67,NNE,33,6.0,8.0,54,0.00,,,0.07,828,Wunderground v.1.15,2013-06-29 20:52:00,
2013-06-29 15:57:00,72.7,55.1,29.67,NE,36,8.0,16.0,54,0.00,,,0.07,851,Wunderground v.1.15,2013-06-29 20:57:00,
2013-06-29 16:02:00,72.7,55.1,29.67,NE,49,9.0,9.0,54,0.00,,,0.07,729,Wunderground v.1.15,2013-06-29 21:02:00,
2013-06-29 16:08:00,72.8,54.7,29.67,East,85,7.0,13.0,53,0.00,,,0.07,679,Wunderground v.1.15,2013-06-29 21:08:00,
2013-06-29 16:14:00,72.5,54.9,29.67,NNE,26,8.0,10.0,54,0.00,,,0.07,612,Wunderground v.1.15,2013-06-29 21:14:00,
2013-06-29 16:19:00,72.2,54.1,29.67,NNW,346,10.0,18.0,53,0.00,,,0.07,475,Wunderground v.1.15,2013-06-29 21:19:00,
2013-06-29 16:25:00,71.9,54.3,29.67,NNE,29,10.0,14.0,54,0.00,,,0.07,373,Wunderground v.1.15,2013-06-29 21:25:00,
2013-06-29 16:29:00,71.8,55.3,29.68,NNE,19,7.0,14.0,56,0.00,,,0.07,278,Wunderground v.1.15,2013-06-29 21:29:00,
2013-06-29 16:36:00,71.6,54.6,29.68,NNE,28,7.0,12.0,55,0.00,,,0.07,459,Wunderground v.1.15,2013-06-29 21:36:00,
2013-06-29 16:40:00,71.7,54.7,29.68,NNE,32,7.0,10.0,55,0.00,,,0.07,469,Wunderground v.1.15,2013-06-29 21:40:00,
2013-06-29 16:46:00,71.8,54.8,29.68,East,80,7.0,11.0,55,0.00,,,0.07,380,Wunderground v.1.15,2013-06-29 21:46:00,
2013-06-29 16:51:00,71.6,55.1,29.68,ENE,59,7.0,7.0,56,0.00,,,0.07,420,Wunderground v.1.15,2013-06-29 21:51:00,
2013-06-29 16:57:00,71.6,55.1,29.68,NNE,22,6.0,8.0,56,0.00,,,0.07,455,Wunderground v.1.15,2013-06-29 21:57:00,
2013-06-29 17:02:00,71.9,55.8,29.68,ENE,76,5.0,5.0,57,0.00,,,0.07,457,Wunderground v.1.15,2013-06-29 22:02:00,
2013-06-29 17:08:00,71.7,55.7,29.68,ESE,102,6.0,12.0,57,0.00,,,0.07,350,Wunderground v.1.15,2013-06-29 22:08:00,
2013-06-29 17:13:00,71.7,55.2,29.68,NE,38,5.0,9.0,56,0.00,,,0.07,497,Wunderground v.1.15,2013-06-29 22:13:00,
2013-06-29 17:18:00,72.2,55.6,29.69,ENE,65,4.0,9.0,56,0.00,,,0.07,462,Wunderground v.1.15,2013-06-29 22:18:00,
2013-06-29 17:24:00,71.9,54.3,29.69,NE,34,6.0,12.0,54,0.00,,,0.07,492,Wunderground v.1.15,2013-06-29 22:24:00,
2013-06-29 17:29:00,72.0,54.4,29.69,NE,49,7.0,12.0,54,0.00,,,0.07,512,Wunderground v.1.15,2013-06-29 22:29:00,
2013-06-29 17:35:00,72.6,54.0,29.69,NNE,22,6.0,11.0,52,0.00,,,0.07,494,Wunderground v.1.15,2013-06-29 22:35:00,
2013-06-29 17:42:00,72.7,55.6,29.69,ENE,65,6.0,6.0,55,0.00,,,0.07,483,Wunderground v.1.15,2013-06-29 22:42:00,
2013-06-29 17:48:00,72.8,55.2,29.69,ESE,105,5.0,6.0,54,0.00,,,0.07,471,Wunderground v.1.15,2013-06-29 22:48:00,
2013-06-29 17:53:00,73.0,54.9,29.69,NE,53,4.0,4.0,53,0.00,,,0.07,508,Wunderground v.1.15,2013-06-29 22:53:00,
2013-06-29 17:59:00,72.3,55.2,29.69,ENE,64,4.0,9.0,55,0.00,,,0.07,188,Wunderground v.1.15,2013-06-29 22:59:00,
2013-06-29 18:04:00,71.7,55.2,29.69,NE,46,5.0,12.0,56,0.00,,,0.07,135,Wunderground v.1.15,2013-06-29 23:04:00,
2013-06-29 18:09:00,71.2,55.7,29.69,North,355,6.0,12.0,58,0.00,,,0.07,128,Wunderground v.1.15,2013-06-29 23:09:00,
2013-06-29 18:15:00,70.8,54.8,29.70,NNE,20,7.0,12.0,57,0.00,,,0.07,121,Wunderground v.1.15,2013-06-29 23:15:00,
2013-06-29 18:21:00,70.4,55.4,29.70,NNE,19,7.0,7.0,59,0.00,,,0.07,107,Wunderground v.1.15,2013-06-29 23:21:00,
2013-06-29 18:26:00,70.2,55.7,29.70,North,360,6.0,7.0,60,0.00,,,0.07,98,Wunderground v.1.15,2013-06-29 23:26:00,
2013-06-29 18:32:00,70.1,55.1,29.70,NNE,30,7.0,8.0,59,0.00,,,0.07,95,Wunderground v.1.15,2013-06-29 23:32:00,
2013-06-29 18:38:00,70.0,55.9,29.70,NNE,24,7.0,11.0,61,0.00,,,0.07,83,Wunderground v.1.15,2013-06-29 23:38:00,
2013-06-29 18:43:00,69.7,55.2,29.70,NNE,33,5.0,7.0,60,0.00,,,0.07,109,Wunderground v.1.15,2013-06-29 23:43:00,
2013-06-29 18:49:00,69.7,55.6,29.71,NNE,19,5.0,8.0,61,0.00,,,0.07,149,Wunderground v.1.15,2013-06-29 23:49:00,
2013-06-29 18:55:00,69.6,56.0,29.71,East,88,6.0,10.0,62,0.00,,,0.07,116,Wunderground v.1.15,2013-06-29 23:55:00,
2013-06-29 19:00:00,69.4,56.7,29.71,NE,46,4.0,10.0,64,0.00,,,0.07,83,Wunderground v.1.15,2013-06-30 00:00:00,
2013-06-29 19:05:00,69.1,56.8,29.71,ENE,76,4.0,8.0,65,0.00,,,0.07,74,Wunderground v.1.15,2013-06-30 00:05:00,
2013-06-29 19:11:00,68.9,56.2,29.71,North,11,5.0,5.0,64,0.00,,,0.07,62,Wunderground v.1.15,2013-06-30 00:11:00,
2013-06-29 19:17:00,68.7,56.5,29.71,NE,40,6.0,10.0,65,0.00,,,0.07,70,Wunderground v.1.15,2013-06-30 00:17:00,
2013-06-29 19:23:00,68.9,57.1,29.71,NNE,22,4.0,5.0,66,0.00,,,0.07,121,Wunderground v.1.15,2013-06-30 00:23:00,
2013-06-29 19:28:00,68.9,56.6,29.71,NE,46,4.0,9.0,65,0.00,,,0.07,37,Wunderground v.1.15,2013-06-30 00:28:00,
2013-06-29 19:34:00,68.6,56.8,29.72,NE,50,4.0,6.0,66,0.00,,,0.07,83,Wunderground v.1.15,2013-06-30 00:34:00,
2013-06-29 19:40:00,68.8,56.1,29.72,NE,35,4.0,9.0,64,0.00,,,0.07,72,Wunderground v.1.15,2013-06-30 00:40:00,
2013-06-29 19:45:00,68.9,56.2,29.72,NE,44,4.0,6.0,64,0.00,,,0.07,28,Wunderground v.1.15,2013-06-30 00:45:00,
2013-06-29 19:50:00,68.4,56.2,29.72,NNE,30,3.0,9.0,65,0.00,,,0.07,30,Wunderground v.1.15,2013-06-30 00:50:00,
2013-06-29 19:56:00,67.9,56.1,29.72,NE,36,3.0,4.0,66,0.00,,,0.07,19,Wunderground v.1.15,2013-06-30 00:56:00,
2013-06-29 20:01:00,67.5,56.2,29.73,NNE,19,3.0,3.0,67,0.00,,,0.07,18,Wunderground v.1.15,2013-06-30 01:01:00,
2013-06-29 20:07:00,67.3,56.4,29.73,NNE,33,2.0,5.0,68,0.00,,,0.07,14,Wunderground v.1.15,2013-06-30 01:07:00,
2013-06-29 20:13:00,67.0,56.9,29.73,NNE,23,2.0,2.0,70,0.00,,,0.07,12,Wunderground v.1.15,2013-06-30 01:13:00,
2013-06-29 20:18:00,66.6,56.1,29.74,NNE,19,1.0,4.0,69,0.00,,,0.07,9,Wunderground v.1.15,2013-06-30 01:18:00,
2013-06-29 20:23:00,66.3,56.2,29.74,NE,35,2.0,3.0,70,0.00,,,0.07,5,Wunderground v.1.15,2013-06-30 01:23:00,
2013-06-29 20:29:00,66.1,56.4,29.74,East,80,2.0,3.0,71,0.00,,,0.07,0,Wunderground v.1.15,2013-06-30 01:29:00,
2013-06-29 20:34:00,66.0,56.3,29.74,NNE,21,2.0,4.0,71,0.00,,,0.07,0,Wunderground v.1.15,2013-06-30 01:34:00,
2013-06-29 20:40:00,66.1,56.4,29.74,NNE,24,3.0,7.0,71,0.00,,,0.07,0,Wunderground v.1.15,2013-06-30 01:40:00,
2013-06-29 20:46:00,66.3,55.8,29.74,NNE,31,3.0,4.0,69,0.00,,,0.07,0,Wunderground v.1.15,2013-06-30 01:46:00,
2013-06-29 20:52:00,66.4,55.9,29.74,NNE,15,4.0,4.0,69,0.00,,,0.07,0,Wunderground v.1.15,2013-06-30 01:52:00,
2013-06-29 20:58:00,66.4,55.9,29.74,North,10,4.0,9.0,69,0.00,,,0.07,0,Wunderground v.1.15,2013-06-30 01:58:00,
2013-06-29 21:03:00,66.4,55.9,29.74,NNE,17,4.0,11.0,69,0.00,,,0.07,0,Wunderground v.1.15,2013-06-30 02:03:00,
2013-06-29 21:08:00,66.3,55.8,29.74,NNE,32,4.0,11.0,69,0.00,,,0.07,0,Wunderground v.1.15,2013-06-30 02:08:00,
2013-06-29 21:13:00,66.2,55.7,29.74,North,10,4.0,5.0,69,0.00,,,0.07,0,Wunderground v.1.15,2013-06-30 02:13:00,
2013-06-29 21:19:00,66.1,56.0,29.75,NE,36,3.0,9.0,70,0.00,,,0.07,0,Wunderground v.1.15,2013-06-30 02:19:00,
2013-06-29 21:24:00,66.0,55.9,29.75,NNE,28,3.0,8.0,70,0.00,,,0.07,0,Wunderground v.1.15,2013-06-30 02:24:00,
2013-06-29 21:29:00,65.8,55.7,29.75,NE,49,3.0,8.0,70,0.00,,,0.07,0,Wunderground v.1.15,2013-06-30 02:29:00,
2013-06-29 21:35:00,65.6,55.9,29.75,North,5,3.0,5.0,71,0.00,,,0.07,0,Wunderground v.1.15,2013-06-30 02:35:00,
2013-06-29 21:40:00,65.4,55.7,29.75,NE,37,4.0,7.0,71,0.00,,,0.07,0,Wunderground v.1.15,2013-06-30 02:40:00,
2013-06-29 21:46:00,65.2,55.6,29.76,NNE,22,4.0,6.0,71,0.00,,,0.07,0,Wunderground v.1.15,2013-06-30 02:46:00,
2013-06-29 21:52:00,64.9,55.7,29.76,NE,36,2.0,2.0,72,0.00,,,0.07,0,Wunderground v.1.15,2013-06-30 02:52:00,
2013-06-29 21:57:00,64.7,55.8,29.76,NE,35,2.0,3.0,73,0.00,,,0.07,0,Wunderground v.1.15,2013-06-30 02:57:00,
2013-06-29 22:03:00,64.5,55.7,29.77,NE,34,3.0,6.0,73,0.00,,,0.07,0,Wunderground v.1.15,2013-06-30 03:03:00,
2013-06-29 22:08:00,64.4,55.6,29.77,NNE,30,3.0,7.0,73,0.00,,,0.07,0,Wunderground v.1.15,2013-06-30 03:08:00,
2013-06-29 22:14:00,64.4,55.6,29.77,North,355,4.0,6.0,73,0.00,,,0.07,0,Wunderground v.1.15,2013-06-30 03:14:00,
2013-06-29 22:20:00,64.4,55.6,29.77,NNE,25,3.0,6.0,73,0.00,,,0.07,0,Wunderground v.1.15,2013-06-30 03:20:00,
2013-06-29 22:26:00,64.3,55.5,29.77,NNE,26,3.0,6.0,73,0.00,,,0.07,0,Wunderground v.1.15,2013-06-30 03:26:00,
2013-06-29 22:31:00,64.2,55.4,29.77,NE,42,4.0,4.0,73,0.00,,,0.07,0,Wunderground v.1.15,2013-06-30 03:31:00,
2013-06-29 22:36:00,64.0,55.2,29.77,NE,53,3.0,7.0,73,0.00,,,0.07,0,Wunderground v.1.15,2013-06-30 03:36:00,
2013-06-29 22:43:00,64.0,55.2,29.77,NE,34,3.0,6.0,73,0.00,,,0.07,0,Wunderground v.1.15,2013-06-30 03:43:00,
2013-06-29 22:48:00,63.9,55.1,29.77,NNE,21,4.0,6.0,73,0.00,,,0.07,0,Wunderground v.1.15,2013-06-30 03:48:00,
2013-06-29 22:54:00,63.8,55.0,29.77,NE,43,4.0,6.0,73,0.00,,,0.07,0,Wunderground v.1.15,2013-06-30 03:54:00,
2013-06-29 23:00:00,63.7,55.3,29.77,NE,40,3.0,6.0,74,0.00,,,0.07,0,Wunderground v.1.15,2013-06-30 04:00:00,
2013-06-29 23:01:00,63.6,55.2,29.77,NNE,29,3.0,3.0,74,0.00,,,0.07,0,Wunderground v.1.15,2013-06-30 04:01:00,
2013-06-29 23:02:00,63.5,55.1,29.77,NE,38,3.0,3.0,74,0.00,,,0.07,0,Wunderground v.1.15,2013-06-30 04:02:00,
2013-06-29 23:04:00,63.5,55.1,29.77,NE,46,3.0,3.0,74,0.00,,,0.07,0,Wunderground v.1.15,2013-06-30 04:04:00,
2013-06-29 23:07:00,63.5,55.1,29.77,NE,38,3.0,5.0,74,0.00,,,0.07,0,Wunderground v.1.15,2013-06-30 04:07:00,
2013-06-29 23:08:00,63.5,55.1,29.77,NNE,22,3.0,5.0,74,0.00,,,0.07,0,Wunderground v.1.15,2013-06-30 04:08:00,
2013-06-29 23:13:00,63.5,55.4,29.77,NE,51,3.0,4.0,75,0.00,,,0.07,0,Wunderground v.1.15,2013-06-30 04:13:00,
2013-06-29 23:19:00,63.4,55.0,29.77,North,11,3.0,6.0,74,0.00,,,0.07,0,Wunderground v.1.15,2013-06-30 04:19:00,
2013-06-29 23:25:00,63.4,55.3,29.77,NNE,12,3.0,3.0,75,0.00,,,0.07,0,Wunderground v.1.15,2013-06-30 04:25:00,
2013-06-29 23:30:00,63.3,55.2,29.78,NNE,31,2.0,3.0,75,0.00,,,0.07,0,Wunderground v.1.15,2013-06-30 04:30:00,
2013-06-29 23:36:00,63.3,55.2,29.78,NNE,33,3.0,5.0,75,0.00,,,0.07,0,Wunderground v.1.15,2013-06-30 04:36:00,
2013-06-29 23:42:00,63.4,55.3,29.78,NNE,31,3.0,3.0,75,0.00,,,0.07,0,Wunderground v.1.15,2013-06-30 04:42:00,
2013-06-29 23:47:00,63.6,55.2,29.78,NE,48,3.0,4.0,74,0.00,,,0.07,0,Wunderground v.1.15,2013-06-30 04:47:00,
2013-06-29 23:53:00,63.7,55.3,29.78,NE,34,2.0,3.0,74,0.00,,,0.07,0,Wunderground v.1.15,2013-06-30 04:53:00,
2013-06-29 23:58:00,63.8,55.4,29.78,NE,37,3.0,6.0,74,0.00,,,0.07,0,Wunderground v.1.15,2013-06-30 04:58:00,